Location: Cabeza de los Veneras
(40.2000°N, 5.2000°W)
Time: 11:51:43
(UTC+00:00)

Sich 1 Rocket - Pass Details

Date: 18 April 2024
Orbit: 615 x 648 km, 82.5° (Epoch: 21 May)

Event Time Altitude Azimuth Distance (km) Brightness Sun altitude
Exits shadow 20:41:30 11° 187° (S) 1,940 5.8 -17.9°
Maximum altitude 20:45:48 88° 277° (W) 630 3.5 -18.6°
Drops below altitude 10° 20:50:16 10° 7° (N) 2,013 6.5 -19.3°
Sets 20:52:32 0° 8° (N) 2,931 7.4 -19.7°
